Location: ???????
(55.5931°N, 39.3286°E)
Time: 08:17:40
(UTC+00:00)

Cosmos 1340 - Visible Passes

Search period start: 22 July 2024 00:00
Search period end: 01 August 2024 00:00
Orbit: 427 x 429 km, 81.2° (Epoch: 21 July)

Date Brightness Start Highest point End Pass type
(mag) Time Alt. Az. Time Alt. Az. Time Alt. Az.
22 Jul 4.6 23:03:07 10° SE 23:05:34 19° E 23:08:02 10° NE visible
23 Jul 2.3 23:53:38 10° SSW 23:56:55 87° E 00:00:16 10° NNE visible
24 Jul 3.6 23:11:44 12° SSE 23:14:31 35° E 23:17:37 10° NNE visible
25 Jul 4.7 22:30:02 10° SE 22:32:14 17° E 22:34:26 10° NE visible
26 Jul 2.8 00:02:58 12° SW 00:05:57 46° WNW 00:09:12 10° N visible
26 Jul 2.4 23:20:54 17° S 23:23:19 72° ESE 23:26:40 10° NNE visible
27 Jul 3.8 22:38:46 16° SSE 22:40:47 30° E 22:43:45 10° NNE visible
28 Jul 3.8 00:11:58 10° SW 00:14:50 26° WNW 00:17:42 10° N visible
28 Jul 4.8 21:56:34 10° ESE 21:58:19 14° E 22:00:10 10° NE visible
28 Jul 2.6 23:29:45 19° SSW 23:31:57 57° WNW 23:35:15 10° N visible
29 Jul 2.7 22:47:28 25° S 22:49:10 57° E 22:52:28 10° NNE visible
30 Jul 4.5 00:21:26 10° W 00:23:32 16° WNW 00:25:39 10° NNW visible
30 Jul 4.0 22:05:06 19° SE 22:06:28 25° E 22:09:16 10° NE visible
30 Jul 3.6 23:38:17 16° WSW 23:40:24 30° WNW 23:43:26 10° N visible
31 Jul 4.9 21:22:40 10° ESE 21:23:52 12° E 21:25:07 10° ENE visible
31 Jul 2.3 22:55:50 29° SSW 22:57:22 71° WNW 23:00:43 10° N visible
